East Milton, MA

12:59 PM EST on November 20, 2017 (GMT -0500)
East Milton

Weather History for KMQE - May, 2013

Change the Weather History Date:

Friday, May 3, 2013

  Actual Average (KOWD) Record (KOWD)
Temperature  
Mean Temperature 48 °F -  
Max Temperature 55 °F 64 °F 91 °F (2001)
Min Temperature 42 °F 41 °F 30 °F (2000)
Degree Days  
Heating Degree Days 17    
Moisture  
Dew Point 39 °F    
Average Humidity 72    
Maximum Humidity 86    
Minimum Humidity 59    
Precipitation  
Precipitation 0.00 in - - ()
Sea Level Pressure  
Sea Level Pressure 30.48 in    
Wind  
Wind Speed 10 mph (NE)    
Max Wind Speed 17 mph    
Max Gust Speed 26 mph    
Averages and records for this station are not official NWS values.
T = Trace of Precipitation, MM = Missing Value Source: NWS Daily Summary

Daily Weather History Graph

Daily Weather History Graph

Search for Another Location

Airport or City:

Trip Planner

Search our weather history database for the weather conditions in past years. The results will help you decide how hot, cold, wet, or windy it might be!

Date:

Astronomy

May. 03, 2013 Rise Set
Actual Time 5:37 AM EDT 7:46 PM EDT
Civil Twilight 5:06 AM EDT 8:17 PM EDT
Nautical Twilight 4:28 AM EDT 8:55 PM EDT
Astronomical Twilight 3:47 AM EDT 9:36 PM EDT
Moon 2:06 AM EDT (5/3) 1:30 PM EDT (5/3)
Length of Visible Light 15h 10m
Length of Day
14h 09m
Last Quarter, 37% of the Moon is Illuminated
May 3
Last Quarter
May 9
New
May 18
First Quarter
May 25
Full
May 31
Last Quarter

Hourly Weather History & Observations

Time (EDT) Temp. Windchill Dew Point Humidity Pressure Visibility Wind Dir Wind Speed Gust Speed Precip Events Conditions
12:54 AM 44.1 °F 39.0 °F 37.9 °F 79% 30.49 in - North 9.2 mph - N/A   Unknown
1:54 AM 44.1 °F 38.6 °F 37.0 °F 76% 30.47 in - North 10.4 mph - N/A   Unknown
2:54 AM 43.0 °F 38.2 °F 37.0 °F 80% 30.46 in - NNE 8.1 mph 16.1 mph N/A   Unknown
3:54 AM 43.0 °F 37.2 °F 37.0 °F 80% 30.47 in - NNE 10.4 mph - N/A   Unknown
4:54 AM 43.0 °F 37.2 °F 37.9 °F 82% 30.48 in - NNE 10.4 mph 18.4 mph N/A   Unknown
5:54 AM 42.1 °F 37.1 °F 37.9 °F 85% 30.50 in - NNE 8.1 mph - N/A   Unknown
6:54 AM 43.0 °F 37.7 °F 39.0 °F 86% 30.52 in - NNE 9.2 mph - N/A   Unknown
7:54 AM 46.9 °F - 39.0 °F 74% 30.53 in - ENE 13.8 mph 21.9 mph N/A   Unknown
8:54 AM 46.9 °F - 39.0 °F 74% 30.54 in - NNE 17.3 mph 25.3 mph N/A   Unknown
9:54 AM 48.0 °F - 39.0 °F 71% 30.53 in - NE 12.7 mph 26.5 mph N/A   Unknown
10:54 AM 51.1 °F - 39.0 °F 63% 30.53 in - ENE 11.5 mph 21.9 mph N/A   Unknown
11:54 AM 51.1 °F - 39.0 °F 63% 30.52 in - NE 13.8 mph 21.9 mph N/A   Unknown
12:54 PM 52.0 °F - 39.9 °F 63% 30.51 in - ENE 11.5 mph 20.7 mph N/A   Unknown
1:54 PM 53.1 °F - 39.0 °F 59% 30.50 in - ENE 11.5 mph 20.7 mph N/A   Unknown
2:54 PM 54.0 °F - 39.9 °F 59% 30.48 in - NE 8.1 mph 18.4 mph N/A   Unknown
3:54 PM 54.0 °F - 39.9 °F 59% 30.46 in - NE 8.1 mph 20.7 mph N/A   Unknown
4:54 PM 53.1 °F - 39.9 °F 61% 30.45 in - NE 11.5 mph 20.7 mph N/A   Unknown
5:54 PM 51.1 °F - 37.9 °F 61% 30.44 in - NE 11.5 mph 19.6 mph N/A   Unknown
6:54 PM 48.0 °F - 39.0 °F 71% 30.44 in - ENE 11.5 mph 18.4 mph N/A   Unknown
7:54 PM 45.0 °F 42.6 °F 39.0 °F 80% 30.43 in - NE 4.6 mph - N/A   Unknown
8:54 PM 45.0 °F 41.2 °F 37.9 °F 76% 30.44 in - NNE 6.9 mph - N/A   Unknown
9:54 PM 45.0 °F 41.8 °F 39.0 °F 80% 30.43 in - NE 5.8 mph - N/A   Unknown
10:54 PM 45.0 °F 41.2 °F 37.9 °F 76% 30.41 in - NNE 6.9 mph - N/A   Unknown
11:54 PM 46.0 °F 41.9 °F 37.0 °F 71% 30.40 in - North 8.1 mph - N/A   Unknown